Location: Newark
(42.7133°N, 87.7910°W)
Time: 19:40:52
(UTC+00:00)

Explorer 7 - Visible Passes

Search period start: 17 September 2019 00:00
Search period end: 27 September 2019 00:00
Orbit: 485 x 680 km, 50.3° (Epoch: 17 September)

Date Brightness Start Highest point End Pass type
(mag) Time Alt. Az. Time Alt. Az. Time Alt. Az.
17 Sep 9.3 08:07:21 25° NE 08:07:21 25° NE 08:09:56 10° ENE visible
17 Sep 8.4 09:43:41 18° NW 09:46:56 40° NNE 09:51:34 10° E visible
18 Sep 9.2 08:12:21 26° NE 08:12:21 26° NE 08:15:10 10° ENE visible
18 Sep 8.1 09:48:41 18° NW 09:52:08 48° NNE 09:56:54 10° E visible
19 Sep 9.1 08:17:27 28° NE 08:17:27 28° NE 08:20:28 10° ENE visible
19 Sep 7.7 09:53:48 19° NW 09:57:17 61° NNE 10:02:10 10° ESE visible
20 Sep 9.0 08:22:41 30° NE 08:22:41 30° NE 08:25:48 10° ENE visible
20 Sep 7.3 09:59:03 21° WNW 10:02:22 82° NNE 10:07:18 10° ESE visible
21 Sep 8.9 08:28:06 32° ENE 08:28:06 32° ENE 08:31:09 10° E visible
21 Sep 7.2 10:04:28 24° WNW 10:07:24 71° SW 10:12:17 10° SE visible
22 Sep 8.9 08:33:43 31° E 08:33:43 31° E 08:36:28 10° E visible
22 Sep 7.5 10:10:05 27° W 10:12:21 48° SW 10:17:04 10° SE visible
23 Sep 9.1 08:39:33 25° ESE 08:39:33 25° ESE 08:41:41 10° ESE visible
23 Sep 8.0 10:15:57 28° WSW 10:17:14 32° SW 10:21:33 10° SSE visible
24 Sep 9.5 08:45:38 17° ESE 08:45:38 17° ESE 08:46:47 10° ESE visible
24 Sep 8.5 10:22:02 21° SW 10:22:02 21° SW 10:25:39 10° S visible
25 Sep 9.3 10:28:19 11° SSW 10:28:19 11° SSW 10:28:58 10° SSW visible
26 Sep 9.0 02:03:37 10° SW 02:04:40 17° SW 02:04:40 17° SW visible
